Terminal Aerodrome Forecast
Issued by NWS Pittsburgh, PA

Current Version | Previous Version | Graphics & Text | Print | Product List | Glossary On
Versions: 1 2 3 4 5 6 7 8 9 10 11 12 13 14 15 16 17 18 19 20 21 22 23 24 25 26 27 28 29 30 31 32 33 34
425
FTUS41 KPBZ 140456 AAB
TAFPIT
TAF AMD
KPIT 140456Z 1405/1506 26004KT P6SM BKN035
      TEMPO 1405/1407 -SN BKN025
     FM141500 15005KT P6SM SCT040
     FM150000 10005KT P6SM BKN100=

USA.gov is the U.S. government's official web portal to all federal, state and local government web resources and services.